Regional Weather Roundup
Issued by NWS Goodland, KS

Home | Current Version | Previous Version | Graphics & Text | Print | Product List | Glossary On
Versions: 1 2 3 4 5 6 7 8 9 10 11 12 13 14 15 16 17 18 19 20 21 22 23 24 25 26 27 28 29 30 31 32 33 34 35 36 37 38 39 40 41 42 43 44 45 46 47 48 49 50
000
ASUS43 KGLD 200759
RWRGLD

GOODLAND FORECAST AREA HOURLY WEATHER ROUNDUP
NATIONAL WEATHER SERVICE GOODLAND KS
200 AM MDT FRI OCT 20 2017

...OFFICIAL OBSERVATIONS...

CITY           SKY/WX    TMP DP  RH WIND       PRES   REMARKS
GOODLAND KS    MOCLDY    56  47  71 S21G30    29.84F
HILL CITY KS   FAIR      61  47  59 S14G24    29.91F
IMPERIAL NEB   CLEAR     56  44  64 S13       29.82F
MCCOOK NEB     PTCLDY    59  46  62 S8        29.85F
AKRON CO       PTCLDY    47  40  76 SW10      29.81F
BURLINGTON CO  MOCLDY    53  47  79 S15       29.85F
LIMON CO       PTCLDY    33  33 100 CALM      29.88F
$$

...UNOFFICIAL OBSERVATIONS...

CITY           SKY/WX    TMP DP  RH WIND       PRES   REMARKS
NORTON KS      CLEAR     57  41  54 S13G21    29.88F
SHARON SPRINGS   N/A     54  47  77 S12         N/A
TRENTON NEB      N/A     56  32  40 S8          N/A
YUMA CO        FAIR      43  41  93 S5        29.81F
$$




USA.gov is the U.S. government's official web portal to all federal, state and local government web resources and services.